Simultaneous Nadir Overpasses (SNOs) Predictions

Prediction of SNOs between GOES-16 and METOP-B Satellite Orbit:

Table of predicted SNOs for the next 14.0 days since TLE Epoch: 3/16/2017
Index Date Time (GOES-16) GOES-16 Lat,Lon METOP-B Lat,Lon Distance(km) Time Diff (sec)
1 03/17/2017 15:21:05 0.02, -89.51 -0.53, -87.12 272.60 80
2 03/19/2017 03:40:06 -0.01, -89.49 -0.51, -91.72 254.20 80
3 03/20/2017 03:16:46 -0.01, -89.50 0.60, -86.72 316.06 80
4 03/21/2017 15:35:38 0.01, -89.56 0.41, -91.29 196.97 80
5 03/22/2017 15:17:38 0.01, -89.58 -0.70, -86.29 373.67 80
6 03/24/2017 03:36:39 -0.00, -89.56 -0.29, -90.90 152.52 80
7 03/25/2017 03:13:20 -0.00, -89.57 0.83, -85.91 418.08 80
8 03/26/2017 15:32:11 0.00, -89.64 0.19, -90.47 94.51 80
9 03/27/2017 15:14:12 0.00, -89.66 -0.93, -85.47 476.49 80
10 03/29/2017 03:33:12 -0.00, -89.64 -0.12, -90.07 48.99 80




NCC Satellite Simultaneous Nadir Overpasses (SNOs) Prediction Service
